Home   Weather   Søgne   Past weeks

Flag for Norway Past Weather in Søgne, Norway — Yesterday and Last 2 Weeks

Now
40 °F

Chilly.


Feels Like: 34 °F
Forecast: 38 / 46 °F
Wind: 8 mph from Northeast

Location: Oksoy Fyr

Current Time: Apr 28, 2017 at 8:03:36 pm

Latest Report: Apr 28, 2017 at 7:00 pm


Visibility: N/A

Pressure: 29.85 "Hg

Humidity: 93%

Dew Point: 38 °F

Location of SøgneLocation

Past Weather in Søgne — Graph

°F

Søgne Temperature Yesterday

Maximum temperature yesterday: 45 °F (at 12:00 pm)
Minimum temperature yesterday: 38 °F (at 6:00 am)
Average temperature yesterday: 41 °F

High & Low Weather Summary for the Past Weeks

 TemperatureHumidityPressure
High54 °F (Apr 22, 1:00 pm)96% (Apr 17, 2:00 pm)30.60 "Hg (Apr 17, 2:00 pm)
Low33 °F (Apr 16, 7:00 am)27% (Apr 22, 4:00 pm)29.38 "Hg (Apr 24, 8:00 am)
Average41 °F72%29.93 "Hg
* Reported Apr 13 6:00 pm — Apr 28 6:00 pm, Søgne, Weather by CustomWeather, © 2017

Note: Actual official high and low records may vary slightly from our data, if they occured in-between our weather recording intervals... More about our weather records

Advertising

Søgne Weather History for the Previous 24 Hours

Scroll right to see more
 ConditionsComfort  
Time TempWeatherWind HumidityBarometerVisibility
6:00 pm
Fri, Apr 28
41 °FQuite cool.10 mph92%29.84 "HgN/A
5:00 pm39 °FChilly.9 mph94%29.83 "HgN/A
4:00 pm38 °FChilly.10 mph91%29.83 "HgN/A
3:00 pm39 °FChilly.12 mph91%29.81 "HgN/A
2:00 pm38 °FChilly.14 mph89%29.79 "HgN/A
1:00 pm38 °FChilly.15 mph88%29.79 "HgN/A
12:00 pm38 °FChilly.15 mph88%29.79 "HgN/A
11:00 am38 °FChilly.13 mph88%29.79 "HgN/A
10:00 am38 °FChilly.13 mph85%29.79 "HgN/A
9:00 am38 °FChilly.13 mph86%29.79 "HgN/A
8:00 am38 °FChilly.12 mph88%29.79 "HgN/A
7:00 am37 °FChilly.12 mph89%29.80 "HgN/A
6:00 am37 °FChilly.10 mph91%29.81 "HgN/A
5:00 am37 °FChilly.10 mph91%29.80 "HgN/A
4:00 am38 °FChilly.9 mph88%29.81 "HgN/A
3:00 am38 °FChilly.10 mph91%29.81 "HgN/A
2:00 am37 °FChilly.12 mph91%29.80 "HgN/A
1:00 am37 °FChilly.8 mph92%29.82 "HgN/A
12:00 am38 °FChilly.9 mph94%29.82 "HgN/A
11:00 pm
Thu, Apr 27
38 °FChilly.8 mph94%29.82 "HgN/A
10:00 pm38 °FChilly.10 mph93%29.81 "HgN/A
9:00 pm43 °FQuite cool.6 mph88%29.79 "HgN/A
8:00 pm44 °FQuite cool.3 mph82%29.78 "HgN/A
Weather by CustomWeather, © 2017

See weather overviewHow to use our weather pages